Location: Pedholt
(56.0260°N, 10.2097°E)
Time: 05:24:46
(UTC+00:00)

Transit 2A Rocket - Pass Details

Date: 01 August 2021
Orbit: 586 x 917 km, 66.7° (Epoch: 24 September)

Event Time Altitude Azimuth Distance (km) Brightness Sun altitude
Rises 22:27:05 0° 313° (NW) 3,238 9.3 -15.2°
Reaches altitude 10° 22:29:38 10° 303° (WNW) 2,362 8.2 -15.3°
Maximum altitude 22:34:21 31° 243° (WSW) 1,435 6.3 -15.4°
Enters shadow 22:37:24 19° 197° (SSW) 1,919 6.5 -15.5°
Drops below altitude 10° 22:39:24 10° 184° (S) 2,521 - -15.6°
Sets 22:42:12 0° 175° (S) 3,491 - -15.6°
